TimeEST,TemperatureF,Dew PointF,Humidity,Sea Level PressureIn,VisibilityMPH,Wind Direction,Wind SpeedMPH,Gust SpeedMPH,PrecipitationIn,Events,Conditions,WindDirDegrees,DateUTC
12:09 AM,64.4,60.8,88,29.91,7.0,SSW,6.9,-,N/A,,Overcast,210,2014-01-06 05:09:00
12:53 AM,66.0,62.1,87,29.91,8.0,SW,5.8,-,N/A,,Overcast,220,2014-01-06 05:53:00
1:30 AM,66.2,62.6,88,29.88,9.0,SSW,6.9,-,N/A,,Overcast,200,2014-01-06 06:30:00
1:53 AM,66.9,63.0,87,29.90,10.0,Variable,5.8,-,N/A,,Overcast,0,2014-01-06 06:53:00
2:07 AM,68.0,62.6,83,29.88,10.0,SW,4.6,-,N/A,,Overcast,230,2014-01-06 07:07:00
2:53 AM,66.9,62.1,84,29.88,10.0,SSW,6.9,-,N/A,,Mostly Cloudy,200,2014-01-06 07:53:00
3:53 AM,68.0,62.1,81,29.89,10.0,Variable,4.6,-,N/A,,Overcast,0,2014-01-06 08:53:00
4:53 AM,69.1,62.1,78,29.88,10.0,SSW,6.9,-,N/A,,Overcast,210,2014-01-06 09:53:00
5:25 AM,69.8,62.6,78,29.85,10.0,SSW,8.1,-,N/A,,Overcast,210,2014-01-06 10:25:00
5:44 AM,60.8,53.6,77,29.88,8.0,NW,11.5,25.3,0.00,Rain,Light Rain,310,2014-01-06 10:44:00
5:53 AM,55.9,48.9,77,29.92,2.5,NW,9.2,25.3,0.00,Rain,Heavy Rain,310,2014-01-06 10:53:00
6:05 AM,53.6,50.0,88,29.91,3.0,NW,8.1,-,0.00,Rain,Light Rain,310,2014-01-06 11:05:00
6:53 AM,51.1,46.9,86,29.98,10.0,NNW,8.1,-,N/A,,Overcast,330,2014-01-06 11:53:00
7:53 AM,48.0,41.0,77,30.03,10.0,NW,8.1,-,0.00,,Overcast,310,2014-01-06 12:53:00
8:01 AM,46.4,41.0,81,30.02,10.0,Variable,6.9,-,N/A,,Overcast,0,2014-01-06 13:01:00
8:51 AM,46.4,39.2,76,30.07,10.0,NNW,8.1,20.7,N/A,,Overcast,330,2014-01-06 13:51:00
8:53 AM,46.0,39.0,76,30.10,10.0,Variable,6.9,20.7,N/A,,Overcast,0,2014-01-06 13:53:00
9:29 AM,44.6,37.4,76,30.11,10.0,Variable,6.9,17.3,N/A,,Overcast,0,2014-01-06 14:29:00
9:41 AM,44.6,35.6,71,30.12,10.0,NNW,11.5,24.2,N/A,,Overcast,330,2014-01-06 14:41:00
9:53 AM,44.1,34.0,68,30.17,10.0,NW,10.4,21.9,N/A,,Mostly Cloudy,310,2014-01-06 14:53:00
10:53 AM,42.1,30.9,65,30.20,10.0,Variable,6.9,17.3,N/A,,Overcast,0,2014-01-06 15:53:00
11:34 AM,44.6,28.4,53,30.18,10.0,NNW,8.1,17.3,N/A,,Mostly Cloudy,340,2014-01-06 16:34:00
11:53 AM,43.0,26.1,51,30.20,10.0,NW,9.2,18.4,N/A,,Partly Cloudy,310,2014-01-06 16:53:00
12:53 PM,46.0,27.0,47,30.19,10.0,Variable,6.9,16.1,N/A,,Mostly Cloudy,0,2014-01-06 17:53:00
1:53 PM,46.0,24.1,42,30.19,10.0,Variable,5.8,-,N/A,,Scattered Clouds,0,2014-01-06 18:53:00
2:53 PM,45.0,23.0,42,30.20,10.0,NNW,8.1,19.6,N/A,,Mostly Cloudy,330,2014-01-06 19:53:00
3:53 PM,45.0,23.0,42,30.22,10.0,Variable,3.5,-,N/A,,Mostly Cloudy,0,2014-01-06 20:53:00
4:53 PM,44.1,19.0,37,30.24,10.0,WNW,9.2,20.7,N/A,,Mostly Cloudy,300,2014-01-06 21:53:00
5:53 PM,41.0,19.9,43,30.27,10.0,Variable,5.8,-,N/A,,Clear,0,2014-01-06 22:53:00
6:53 PM,39.9,18.0,41,30.30,10.0,WNW,9.2,-,N/A,,Clear,300,2014-01-06 23:53:00
7:53 PM,37.9,15.1,39,30.35,10.0,Variable,5.8,-,N/A,,Clear,0,2014-01-07 00:53:00
8:53 PM,36.0,12.9,39,30.38,10.0,Variable,6.9,20.7,N/A,,Clear,0,2014-01-07 01:53:00
9:53 PM,34.0,9.0,35,30.43,10.0,NNW,8.1,-,N/A,,Clear,330,2014-01-07 02:53:00
10:53 PM,32.0,6.1,34,30.45,10.0,Variable,6.9,-,N/A,,Clear,0,2014-01-07 03:53:00
11:53 PM,30.9,5.0,33,30.45,10.0,Variable,4.6,-,N/A,,Clear,0,2014-01-07 04:53:00